Probability
0 0 0 0 0 0 0 0 0 0 0 0 0 0 0 0 0 0 0 1 3 5 5 4 4 7 10 13 15 17 16 14 11 10 9 7 3 0 0 0 0 0 0 0 0 0 0 0 0
0 0 0 0 0 0 0 0 0 0 0 0 0 0 1 2 2 1 1 5 9 10 8 4 3 6 10 13 15 15 13 11 10 9 8 6 3 1 0 0 0 0 0 0 0 0 0 0 0
0 0 0 0 0 0 0 0 0 0 0 0 0 1 3 4 4 2 4 12 19 18 12 6 5 8 12 15 16 15 14 11 9 8 8 6 4 2 1 0 0 0 0 0 0 0 0 0 0
0 0 0 0 0 0 0 0 0 0 0 1 1 3 5 6 5 4 8 18 26 25 16 10 10 13 17 20 21 22 21 17 13 9 7 5 3 2 1 0 0 0 0 0 0 0 0 0 0
0 0 0 0 0 0 0 0 0 0 1 2 3 4 6 7 7 5 8 18 29 30 22 16 16 18 21 25 30 31 30 26 20 13 8 5 3 3 1 0 0 0 0 0 0 0 0 0 0
0 0 0 0 0 0 0 0 0 0 1 2 4 5 7 12 13 10 10 19 30 34 30 27 24 21 23 29 35 38 38 34 25 17 10 5 3 3 2 1 0 0 0 0 0 0 0 0 0
0 0 0 0 0 0 0 0 0 0 0 2 5 8 10 16 21 19 19 25 33 40 40 37 31 26 25 29 33 39 41 36 26 17 10 5 3 3 3 1 0 0 0 0 0 0 0 0 0
0 0 0 0 0 0 0 0 0 0 0 1 5 9 14 22 32 35 35 34 37 41 45 43 36 30 28 27 27 30 33 29 20 12 8 5 4 3 3 2 0 0 0 0 0 0 0 0 0
0 0 0 0 0 0 0 0 0 0 0 1 5 11 20 34 46 50 47 40 35 36 42 42 37 31 28 27 25 26 26 22 14 8 7 6 4 2 2 1 0 0 0 0 0 0 0 0 0
0 0 0 0 0 0 0 0 0 0 0 0 5 16 29 44 54 55 49 38 29 30 36 38 34 30 29 30 31 31 30 23 14 9 7 4 2 1 1 0 0 0 0 0 0 0 0 0 0
0 0 0 0 0 0 0 0 0 0 0 0 6 21 40 50 53 53 47 37 28 25 30 33 31 29 30 33 36 36 35 29 18 11 6 2 0 0 0 0 0 0 0 0 0 0 0 0 0
0 0 0 0 0 0 0 0 0 0 0 0 6 24 46 55 53 49 44 37 30 24 25 30 29 28 30 32 34 34 34 29 21 12 6 1 0 0 0 0 0 0 0 0 0 0 0 0 0
0 0 0 0 0 0 0 0 0 0 0 1 7 24 44 53 52 46 40 35 29 25 25 30 32 29 28 29 29 29 29 25 19 12 5 1 0 0 0 0 0 0 0 0 0 0 0 0 0
0 0 0 0 0 0 0 0 0 1 2 3 10 24 36 44 45 42 39 34 28 27 28 32 34 31 28 28 26 25 24 21 15 9 4 1 0 0 0 0 0 0 0 0 0 0 0 0 0
0 0 0 0 0 0 0 0 2 3 4 5 12 23 32 35 36 38 36 33 30 30 32 34 33 30 27 25 23 21 19 15 10 5 3 1 0 0 0 0 0 0 0 0 0 0 0 0 0
0 0 0 0 0 0 0 1 3 5 5 7 12 22 29 30 30 32 34 34 32 34 38 41 38 32 26 23 20 18 14 9 4 2 1 0 0 0 0 1 1 0 0 0 0 0 0 0 0
0 0 0 0 0 0 0 1 4 6 7 9 14 20 26 28 29 31 36 39 38 39 44 46 44 38 31 26 21 17 12 5 1 0 0 1 1 1 1 1 1 0 0 0 0 0 0 0 0
0 0 0 0 0 0 0 1 3 5 8 11 15 19 24 27 30 33 39 45 45 44 45 47 45 42 40 35 25 17 9 3 0 0 0 1 2 1 1 1 1 1 0 0 0 0 0 0 0
0 0 0 0 0 0 0 1 3 6 8 11 14 18 23 27 30 35 41 47 51 49 46 47 44 42 43 40 29 18 10 4 1 0 0 1 2 1 1 1 2 1 1 1 1 1 1 0 0
0 0 0 0 0 0 0 1 4 7 9 12 15 18 21 24 28 34 40 46 50 49 46 45 44 42 41 37 29 20 13 6 2 1 1 0 0 0 0 1 1 1 1 2 2 2 1 0 0
0 0 0 0 0 0 0 1 3 6 9 12 16 18 21 23 25 30 36 39 39 39 39 40 40 40 37 31 25 20 15 9 5 3 1 0 0 0 0 0 0 0 1 1 1 1 1 0 0
0 0 0 0 0 0 0 0 1 3 5 8 12 15 18 20 23 25 27 27 25 26 28 29 31 33 31 26 22 19 16 11 7 4 2 0 0 0 0 0 0 0 0 0 0 0 0 0 0
0 0 0 0 0 0 0 0 0 1 2 5 6 9 12 15 17 18 16 15 16 17 19 21 23 25 24 20 18 17 15 11 7 4 2 1 0 0 0 1 0 0 0 0 0 0 0 0 0
0 0 0 0 0 0 0 0 0 0 1 3 3 4 6 8 10 10 9 8 9 11 14 17 19 20 18 15 14 14 11 7 4 3 3 2 1 0 0 0 0 0 0 0 0 0 0 0 0
0 0 0 0 0 0 0 0 0 0 0 1 1 2 3 4 4 4 5 4 5 6 9 12 15 15 14 12 11 10 8 5 3 3 3 2 1 0 0 0 0 0 0 0 0 0 0 0 0
0 0 0 0 0 0 0 1 1 1 0 0 0 1 1 1 1 2 2 3 3 4 5 7 9 9 8 8 7 6 4 3 2 2 2 1 0 0 0 0 0 0 0 0 0 0 0 0 0
0 0 0 0 0 0 0 2 3 2 1 0 0 0 0 0 0 1 1 1 2 2 3 4 4 4 4 4 4 3 2 1 1 1 1 0 0 0 0 0 0 0 0 0 0 0 0 0 0
0 0 0 0 0 0 0 1 2 2 1 0 0 0 0 0 0 0 0 0 1 1 1 2 2 2 2 2 2 1 0 0 0 0 0 0 0 0 0 0 0 0 0 0 0 0 0 0 0
0 0 0 0 0 0 0 0 0 1 1 0 0 0 0 0 0 0 0 0 0 0 0 1 1 1 1 1 1 0 0 0 0 0 0 0 0 0 0 0 0 0 0 0 0 0 0 0 0
0 0 0 0 0 0 0 0 0 0 0 0 0 0 0 0 0 0 0 0 0 0 0 0 0 0 0 0 0 0 0 0 0 0 0 0 0 0 0 0 0 0 0 0 0 0 0 0 0
Wind_Speed
7 2 3 3 5 4 3 5 3 1 1 2 2 4 5 4 4 3 1 7 12 14 12 15 17 17 17 18 18 18 19 19 19 18 18 17 17 16 15 15 14 13 13 13 13 13 13 13 13
3 0 4 5 5 1 5 5 3 2 2 2 1 2 2 1 0 0 2 6 12 13 11 13 17 17 18 19 19 18 19 19 18 18 18 17 17 16 15 15 14 13 13 13 13 13 12 12 12
2 2 4 5 4 6 5 4 3 1 0 2 2 1 1 2 1 1 3 9 11 11 9 12 19 17 17 18 19 19 19 18 18 17 17 16 16 15 14 14 14 13 12 12 12 12 12 11 11
3 5 5 4 5 6 6 3 1 0 1 1 3 2 1 0 1 1 7 11 12 10 9 11 18 17 17 18 18 18 18 18 17 17 16 16 15 14 14 13 13 12 12 11 11 11 11 10 10
5 5 3 1 5 5 5 4 2 2 3 2 3 3 1 1 3 5 8 11 12 10 8 10 15 16 16 17 17 17 17 16 16 15 15 15 14 13 13 12 12 11 11 10 10 10 9 9 8
5 5 4 5 6 5 5 3 1 2 2 2 4 4 2 1 4 6 7 8 9 11 9 9 15 17 16 17 16 15 15 15 14 14 14 13 13 12 12 11 11 10 10 9 9 8 7 7 6
6 5 5 5 4 4 5 2 3 3 4 4 4 5 2 2 5 7 7 7 8 10 9 8 9 12 15 15 15 14 14 14 13 13 13 13 12 12 11 10 10 9 8 8 7 6 6 5 4
5 6 3 3 4 5 4 2 2 4 4 2 3 6 5 5 7 9 8 7 8 8 8 8 7 7 7 9 15 15 14 14 14 14 14 13 12 11 11 8 8 8 7 6 6 5 4 3 2
5 6 3 5 6 5 3 2 3 1 1 1 2 3 4 9 10 11 8 6 8 9 8 8 8 7 7 7 11 12 14 13 12 11 13 10 5 5 6 7 8 7 6 5 5 4 3 2 1
5 4 8 6 5 4 3 3 3 2 2 2 2 1 6 11 11 12 11 10 11 12 11 8 9 9 8 8 6 5 5 6 5 4 6 4 4 3 4 5 7 7 6 5 4 4 2 1 0
5 6 6 6 7 5 4 5 3 3 6 8 8 9 11 12 12 12 13 12 12 12 12 10 9 9 9 6 6 4 3 4 4 5 5 4 3 2 2 1 2 2 3 1 1 1 0 0 0
4 6 5 6 4 4 5 4 4 7 11 7 8 12 13 14 15 14 14 13 11 11 12 11 11 9 9 6 6 6 5 5 4 5 5 4 3 2 2 1 2 1 1 1 1 1 1 1 1
4 5 5 7 7 6 5 6 5 7 10 5 5 11 14 14 13 11 10 11 11 12 13 13 12 11 9 7 6 7 6 6 6 5 5 5 4 3 3 2 2 2 2 2 2 1 1 2 2
4 4 6 7 6 4 5 5 3 10 6 3 5 10 12 12 11 9 9 11 11 12 12 11 12 11 10 8 7 7 6 6 5 5 6 6 4 4 3 3 2 2 2 2 2 1 1 1 1
2 4 7 5 3 3 2 3 4 7 3 3 5 6 8 7 8 10 11 12 12 11 11 11 12 11 11 10 8 6 6 6 5 5 5 6 5 4 3 3 3 3 2 3 2 1 1 0 0
2 2 4 7 4 3 3 4 7 5 1 3 3 4 5 5 6 6 6 7 8 10 10 10 11 11 10 8 7 5 5 5 4 4 4 5 6 5 4 3 3 2 2 2 2 1 1 0 0
4 2 4 8 4 1 2 4 6 5 0 1 1 2 3 2 2 3 4 6 7 8 9 10 9 10 9 7 5 4 4 4 3 3 3 4 4 5 4 3 2 2 2 2 2 1 1 1 1
4 3 4 6 5 2 2 3 6 5 0 1 0 0 1 2 2 2 3 4 4 6 6 7 7 7 7 6 4 3 4 3 3 2 2 3 3 4 4 3 3 3 2 2 2 2 2 2 1
4 4 7 9 5 1 2 2 4 4 3 2 2 2 1 1 2 2 2 4 5 5 6 6 6 5 5 5 4 4 4 3 3 3 4 4 4 4 4 3 3 3 2 3 3 3 3 2 1
5 5 7 8 3 3 2 1 2 4 3 3 3 3 3 4 6 6 4 4 4 5 6 6 6 6 6 4 3 3 4 4 4 4 5 6 5 5 5 5 4 3 3 4 3 2 2 2 2
5 6 6 5 2 2 3 1 2 3 5 7 7 6 7 7 7 7 7 6 6 6 5 5 6 6 6 7 6 5 4 4 3 5 5 7 7 7 7 7 5 5 4 4 4 2 2 2 2
6 7 7 5 1 2 1 1 1 2 5 6 7 8 8 8 8 8 8 8 8 7 5 5 5 6 6 7 8 6 5 5 4 5 5 7 8 9 8 8 8 7 6 6 5 5 3 3 2
8 4 3 3 3 0 1 2 3 2 3 5 6 8 8 8 9 9 9 8 8 7 6 5 7 7 7 6 8 8 7 7 7 8 8 8 8 9 9 9 8 8 7 7 8 7 7 5 4
3 3 4 4 4 1 2 3 2 2 3 5 6 8 8 8 9 9 9 9 9 9 8 7 8 8 8 8 8 9 11 10 11 10 9 7 6 7 10 10 9 9 8 9 8 9 10 8 9
3 5 4 4 3 3 2 3 2 1 5 7 8 8 8 8 9 10 10 10 10 10 9 8 9 10 9 10 10 10 11 11 11 9 9 8 7 7 9 9 9 9 9 9 9 10 10 10 10
3 7 6 4 4 3 1 2 1 4 7 8 9 9 9 9 9 10 10 10 9 10 11 10 10 11 11 11 11 11 11 8 9 10 10 9 7 8 9 10 10 10 10 9 9 9 9 9 9
3 3 5 6 2 0 1 1 2 5 7 8 9 9 9 9 9 9 10 10 10 11 11 11 11 12 12 13 13 13 13 12 13 12 12 10 8 9 10 11 11 10 10 9 9 9 8 8 8
3 5 5 5 5 2 2 3 4 8 8 8 8 8 8 9 9 10 10 10 10 10 11 13 13 14 13 13 12 12 13 13 13 12 13 12 10 10 11 11 10 10 9 9 9 8 7 8 7
1 2 4 3 4 5 3 4 2 7 9 11 10 9 9 9 9 9 9 9 10 11 11 12 13 13 13 13 13 14 13 13 13 12 12 11 10 10 10 10 10 9 8 8 8 8 8 8 7
2 3 5 4 3 3 3 2 2 4 8 11 12 11 10 10 9 9 10 10 11 11 11 12 12 13 13 13 14 14 13 13 13 12 11 10 10 9 9 9 9 9 8 8 8 8 7 7 7
Wind_Direction
310 317 113 79 56 50 259 255 241 235 231 216 160 145 149 157 180 245 315 133 134 141 149 153 153 151 146 139 132 129 127 126 126 126 126 127 128 128 128 129 128 127 126 124 122 120 119 118 119
295 76 75 68 96 192 264 254 242 229 214 148 113 114 136 164 235 52 77 121 134 140 145 152 154 152 148 142 137 133 131 130 129 128 128 129 129 129 129 130 130 129 128 127 125 123 121 120 121
301 71 93 90 145 190 233 240 224 292 179 154 137 110 161 178 251 146 141 134 131 138 143 156 156 154 150 145 141 138 135 133 132 131 131 131 131 131 131 132 132 131 130 129 128 126 125 123 123
71 53 60 105 211 220 224 247 219 286 311 169 154 151 174 328 164 141 139 140 134 141 146 159 158 156 152 148 145 142 139 138 136 135 134 134 134 134 135 135 135 135 134 132 130 128 127 125 124
59 81 91 217 237 247 249 259 223 208 220 192 159 165 186 356 74 111 138 145 142 142 146 159 158 157 155 152 149 146 144 142 140 139 139 138 138 138 139 140 139 139 138 137 135 133 131 129 127
59 73 126 228 250 262 267 249 216 224 222 197 164 153 211 159 103 106 124 134 142 145 146 156 161 161 159 156 153 150 148 146 144 144 143 142 142 143 144 145 145 144 144 144 143 140 137 132 127
110 115 177 209 241 264 260 226 197 210 219 211 169 148 218 193 133 119 112 119 135 145 148 156 161 164 164 159 156 154 152 150 149 148 148 148 149 150 152 152 152 152 153 154 154 152 147 138 132
123 114 164 212 220 249 259 284 235 194 226 207 155 168 205 196 144 118 105 119 136 145 153 160 157 154 156 160 163 161 158 156 156 156 156 156 158 159 160 159 161 163 165 169 170 168 164 158 155
89 85 195 218 207 241 258 291 290 248 174 203 224 215 194 143 135 123 124 140 151 159 163 166 162 154 150 157 168 166 164 163 162 163 164 159 155 157 162 170 175 178 182 187 192 195 199 199 209
95 151 222 220 211 233 270 260 268 281 249 230 229 180 137 144 150 148 156 167 173 173 173 171 169 162 157 167 161 156 160 161 159 159 161 152 150 162 168 184 191 194 199 207 216 225 233 225 46
152 193 229 238 232 237 265 264 233 214 245 221 205 182 162 164 168 169 173 178 185 177 177 176 174 169 168 166 158 157 152 155 158 164 159 152 148 158 164 163 201 207 211 211 260 279 317 352 249
180 237 228 249 236 220 233 248 240 214 234 231 206 174 169 176 182 183 181 179 179 177 183 179 177 175 175 169 167 164 163 167 173 175 166 159 161 172 177 184 196 193 184 190 213 242 266 267 259
218 256 253 250 266 244 241 243 245 251 255 255 207 176 178 183 190 188 179 174 177 183 185 182 178 178 177 172 172 173 174 177 178 177 177 171 173 183 188 196 201 206 195 196 207 232 255 263 267
242 254 279 279 269 246 223 256 220 263 276 231 191 185 188 186 186 185 181 179 184 185 184 180 181 180 177 179 179 178 179 175 174 182 185 181 180 183 186 195 201 210 203 197 198 214 242 262 269
283 297 312 293 278 264 176 301 257 274 299 208 193 185 181 187 184 192 194 190 185 184 181 180 182 181 182 183 183 178 179 175 180 184 184 185 185 184 183 189 200 206 190 181 171 162 146 235 318
4 5 316 298 305 287 141 265 294 319 167 218 208 182 175 182 188 204 202 197 185 176 176 179 186 184 184 181 180 174 174 175 179 176 178 186 187 179 174 185 198 182 161 164 152 152 141 129 63
20 338 288 302 312 352 114 262 308 354 121 229 228 185 171 168 192 207 199 193 184 176 170 172 181 180 181 176 170 163 159 163 163 157 167 180 181 172 167 177 176 157 152 151 152 141 143 135 91
268 277 280 282 292 10 344 276 308 348 125 228 276 136 146 172 226 217 175 160 159 161 160 167 174 172 164 154 146 141 131 131 117 117 128 138 145 145 144 142 135 134 134 128 124 120 99 95 92
225 246 268 270 266 277 255 287 326 357 50 56 26 32 62 28 15 52 107 119 128 135 142 152 152 157 150 153 159 159 153 134 114 97 86 89 99 106 111 113 107 107 114 116 122 122 103 80 76
219 252 266 285 287 177 175 72 19 29 45 64 56 44 47 43 35 41 65 90 106 120 131 142 148 151 152 156 139 113 112 102 95 85 74 67 73 77 86 86 87 81 85 75 68 87 107 82 52
235 215 237 245 329 79 123 35 62 57 61 64 59 55 48 50 50 51 55 63 75 80 95 125 131 136 134 122 105 99 94 87 87 82 73 63 69 72 74 75 74 67 70 72 59 54 109 119 69
261 233 219 223 200 267 173 218 237 110 72 64 58 53 48 48 51 52 54 55 57 59 71 97 110 112 116 116 114 122 131 123 103 93 88 74 66 70 70 71 72 67 62 60 53 48 50 88 96
232 251 213 198 171 150 348 148 256 142 111 95 78 66 56 52 53 50 47 52 52 50 57 78 95 94 99 107 116 120 116 115 108 97 86 75 64 63 67 70 72 72 67 65 62 59 57 60 66
232 46 51 56 81 65 258 153 248 210 164 128 98 76 63 59 58 54 47 48 47 45 50 61 86 84 89 100 107 118 122 122 116 110 102 86 76 69 67 71 70 71 70 67 66 67 66 66 68
98 83 23 0 19 252 237 128 215 103 124 127 115 92 73 61 58 54 48 48 47 49 55 62 78 82 85 97 98 104 109 112 110 109 103 97 85 75 68 71 71 71 70 70 69 70 66 64 67
185 145 162 200 215 265 343 144 133 101 105 109 105 96 83 69 61 57 51 51 49 52 56 60 73 79 81 86 88 89 93 94 93 90 92 87 84 81 77 75 73 70 69 71 69 69 67 64 65
161 185 169 142 153 113 246 145 134 129 119 116 109 99 90 79 69 63 56 52 52 53 55 61 70 75 78 82 84 82 83 87 91 90 87 86 85 84 78 77 75 71 70 70 72 72 69 69 66
164 150 105 125 153 207 232 204 196 170 159 136 121 108 97 86 78 70 62 56 56 60 61 64 67 70 72 77 81 85 83 86 87 87 87 85 82 82 80 76 73 70 67 69 73 73 69 70 63
111 117 121 129 160 157 199 247 238 183 166 148 131 115 104 93 84 78 74 68 65 65 65 68 70 75 77 80 83 84 84 85 86 84 84 85 82 79 79 77 75 72 68 68 73 71 69 69 63
181 173 153 157 199 167 160 250 358 143 137 133 126 116 106 97 89 84 81 76 72 70 70 72 74 76 78 82 84 85 85 85 86 85 83 84 82 78 78 77 75 72 68 64 69 72 67 69 65